DLH145N LFMN-LGSR

Flight info

Callsign DLH145N
Flight time N/A
Altitude 37000
Route SODRI DCT RAPUR DCT RATAP DCT BTA DCT DOKAR DCT SUNEV DCT INGAB DCT RUTOM DCT TRL UM601 MIL/N0399F230 B34 PEXAN
Aircraft A320/M-SDE3FGHIRWY/LB1

Departure

Time 2026-05-04 15:39
Airport Nice-Côte d'Azur Airport (LFMN)

Arrival

Time N/A
Airport Santorini International Airport (LGSR)
Time Latitude Longitude Altitude Speed Heading
2026-05-04 15:01 43.66077 7.20692 22 ft 0 kts 297°
2026-05-04 15:30 43.66055 7.20780 25 ft 4 kts 263°
2026-05-04 15:30 43.66070 7.20805 22 ft 0 kts 170°
2026-05-04 15:32 43.66069 7.20805 22 ft 1 kts 170°
2026-05-04 15:32 43.66008 7.20815 22 ft 7 kts 173°
2026-05-04 15:33 43.65872 7.20793 22 ft 11 kts 225°
2026-05-04 15:34 43.65640 7.20471 22 ft 16 kts 225°
2026-05-04 15:34 43.65566 7.20368 22 ft 15 kts 225°
2026-05-04 15:34 43.65434 7.20192 22 ft 12 kts 211°
2026-05-04 15:35 43.65298 7.20272 22 ft 12 kts 132°
2026-05-04 15:35 43.65237 7.20355 22 ft 13 kts 136°
2026-05-04 15:35 43.65173 7.20442 22 ft 13 kts 137°
2026-05-04 15:36 43.65013 7.20393 22 ft 13 kts 225°
2026-05-04 15:36 43.64953 7.20310 22 ft 12 kts 225°
2026-05-04 15:36 43.64899 7.20238 22 ft 9 kts 220°
2026-05-04 15:37 43.64844 7.20229 24 ft 7 kts 160°
2026-05-04 15:37 43.64802 7.20279 22 ft 9 kts 130°
2026-05-04 15:37 43.64777 7.20362 22 ft 10 kts 92°
2026-05-04 15:37 43.64815 7.20445 22 ft 11 kts 44°
2026-05-04 15:38 43.64823 7.20456 22 ft 0 kts 44°
2026-05-04 15:38 43.64964 7.20652 22 ft 64 kts 45°
2026-05-04 15:38 43.65429 7.21292 26 ft 122 kts 45°
2026-05-04 15:38 43.66117 7.22269 234 ft 147 kts 47°
2026-05-04 15:39 43.66693 7.23360 997 ft 140 kts 71°
2026-05-04 15:39 43.66827 7.24676 1599 ft 143 kts 103°
2026-05-04 15:39 43.65202 7.26691 2456 ft 181 kts 146°
2026-05-04 15:40 43.64122 7.27670 2939 ft 194 kts 136°
2026-05-04 15:40 43.63109 7.29053 3411 ft 211 kts 129°
2026-05-04 15:40 43.62121 7.30583 4112 ft 216 kts 129°
2026-05-04 15:40 43.61114 7.32135 4906 ft 218 kts 130°
2026-05-04 15:41 43.60064 7.33654 5702 ft 220 kts 138°
2026-05-04 15:41 43.58747 7.34714 6596 ft 218 kts 156°
2026-05-04 15:41 43.57341 7.35462 7520 ft 216 kts 158°
2026-05-04 15:41 43.55936 7.36192 8338 ft 217 kts 159°
2026-05-04 15:42 43.54514 7.36922 9105 ft 219 kts 161°
2026-05-04 15:42 43.53074 7.37655 9874 ft 222 kts 162°
2026-05-04 15:42 43.51611 7.38395 10541 ft 228 kts 162°
2026-05-04 15:42 43.50047 7.39181 10836 ft 251 kts 163°
2026-05-04 15:43 43.48325 7.40046 11096 ft 275 kts 163°
2026-05-04 15:43 43.46477 7.40976 11317 ft 299 kts 163°
2026-05-04 15:43 43.44445 7.42000 11524 ft 322 kts 162°
2026-05-04 15:43 43.42292 7.43093 11952 ft 335 kts 162°
2026-05-04 15:44 43.40074 7.44219 12510 ft 344 kts 162°
2026-05-04 15:44 43.37809 7.45367 13163 ft 349 kts 162°
2026-05-04 15:44 43.35516 7.46526 13855 ft 353 kts 163°
2026-05-04 15:44 43.33196 7.47698 14486 ft 357 kts 163°
2026-05-04 15:45 43.30855 7.48877 15115 ft 360 kts 163°
2026-05-04 15:45 43.28491 7.50066 15751 ft 363 kts 163°
2026-05-04 15:45 43.26107 7.51268 16375 ft 367 kts 163°
2026-05-04 15:45 43.23705 7.52477 16983 ft 370 kts 163°
2026-05-04 15:46 43.21281 7.53694 17583 ft 373 kts 163°
2026-05-04 15:46 43.18831 7.54924 18185 ft 376 kts 163°
2026-05-04 15:46 43.16362 7.56169 18698 ft 380 kts 161°
2026-05-04 15:46 43.14010 7.57889 19191 ft 388 kts 148°
2026-05-04 15:47 43.11990 7.60382 19665 ft 397 kts 134°
2026-05-04 15:47 43.10438 7.63543 20151 ft 405 kts 119°
2026-05-04 15:47 43.09491 7.67205 20634 ft 413 kts 104°
2026-05-04 15:47 43.09001 7.71097 21115 ft 417 kts 102°
2026-05-04 15:48 43.08525 7.75021 21597 ft 420 kts 102°